www.pogodaiklimat.ru

Погода и климат >> Архив погоды >> Россия >> Саратовская область >> Пугачев


ПОГОДА в Пугачеве

  • Прогноз погоды в Пугачеве
  • Монитор погоды в Пугачеве

АРХИВ ПОГОДЫ в Пугачеве

Время (UTC), дата Ветер
(напр.,м/с)
 
Видим.   Явления Облачность Т
(С)
Тd
(С)
f
(%)
Тe
(С)
Тes
(С)
Комфортность P
(гПа)
Po
(гПа)
Тmin
(С)
Tmax
(С)
R
(мм)
R24
(мм)
S
(см)
12 15.01 ЮЗ 6-10
{13}
2000 м слаб. снег 10/10 210 м
[Frnb Ns]
-1.9 -2.6 95 -9 -9 1009.4 1004.8
15 15.01 ЮЗ 6-10
{11}
4000 м слаб. снег 10/10 300 м
[St]
-1.1 -2.3 92 -8 -8 1009.4 1004.8 -1.1 3
18 15.01 ЮЗ 5
{11}
4000 м слаб. снег 10/10 240 м
[St]
-0.7 -1.9 92 -7 -7 1009.9 1005.3
21 15.01 ЮЗ 5
{11}
1000 м слаб. снег 10/10 210 м
[Frnb Ns]
-1.2 -2.3 92 -8 -8 1009.7 1005.1
00 16.01 Ю 5-10
{12}
10 км в посл. час снег 10/10 210 м
[St]
-1.7 -3.0 91 -8 -8 1009.6 1004.9
03 16.01 Ю 5
{11}
10 км 10/10 210 м
[St]
-2.6 -3.3 95 -9 -9 1007.8 1003.2 -2.6 3 49
06 16.01 Ю 5
{13}
10 км 10/6 270 м
[Frnb As op]
-4.5 -5.6 92 -12 -12 1007.4 1002.7 -4.5
09 16.01 ЮВ 6-11
{11}
10 км 10/0
[As op]
-4.4 -6.0 89 -12 -12 1004.1 999.5
12 16.01 Ю 8-13
{16}
10 км позёмок 10/10 270 м
[St]
-4.6 -5.4 94 -13 -13 1002.7 998.1
15 16.01 Ю 5-10
{15}
4000 м слаб. снег {метель} 10/10 240 м
[Frnb Ns]
-2.1 -2.7 96 -9 -9 1001.8 997.2 -2.1 0.3
18 16.01 ЮЗ 5-11
{14}
10 км {снег} 10/10 210 м
[St]
-0.3 -1.6 91 -7 -7 1001.2 996.7
21 16.01 З 5
{11}
10 км в посл. час снег 10/10 330 м
[St]
-0.3 -1.5 92 -7 -7 1002.7 998.2
00 17.01 З 3 10 км {снег} 6/0
[Ac trans]
-5.1 -6.9 87 -11 -11 1005.6 1001.0
03 17.01 СЗ 4 10 км 3/0
[Ci sp]
-6.7 -8.3 88 -13 -13 1008.2 1003.5 -6.7 0.0 48
06 17.01 СЗ 4 10 км 6/0
[Ac trans]
-9.6 -10.8 91 -17 -16 1010.9 1006.1 -9.6
09 17.01 СЗ 5 10 км 3/0
[Ci sp]
-7.1 -9.3 84 -15 -14 1012.8 1008.1
12 17.01 З 2 10 км 8/4 600 м
[Sc Ac trans Ci sp]
-6.8 -9.2 83 -11 -11 1014.7 1010.0
15 17.01 З 1 10 км 3/0
[Ci sp]
-9.5 -11.4 86 -12 -12 1016.6 1011.8 -5.6
18 17.01 ЮЗ 2 10 км ясно -14.1 -15.0 93 -19 -19 1017.6 1012.8
21 17.01 Ю 1 10 км ясно -17.7 -19.0 90 -21 -21 1018.4 1013.5
00 18.01 ЮЗ 2 10 км 8/0
[Ci sp]
-15.7 -16.8 91 -21 -21 1018.6 1013.7
03 18.01 ЮЗ 2 10 км 8/0
[Ci fib]
-14.7 -15.7 92 -20 -20 1018.1 1013.2 -17.7 48
06 18.01 ЮЗ 4 10 км 10/0
[Ci sp]
-13.6 -14.6 92 -21 -21 1017.2 1012.4
09 18.01 ЮЗ 6
{11}
10 км 8/0
[Ac trans]
-8.6 -10.6 85 -17 -17 1015.8 1011.0
12 18.01 З 5
{11}
10 км 10/10 900 м
[Sc]
-6.5 -8.0 89 -14 -14 1015.7 1010.9
15 18.01 ЮЗ 2 10 км 10/10 400 м
[St]
-6.3 -7.3 93 -11 -11 1016.0 1011.3 -6.2
18 18.01 ЮЗ 2 10 км 10/10 270 м
[St]
-4.8 -5.6 94 -9 -9 1015.5 1010.9
21 18.01 ЮЗ 3 10 км 10/10 240 м
[St]
-4.6 -5.9 91 -10 -10 1015.5 1010.8
00 19.01 ЮЗ 2 10 км 10/10 210 м
[St]
-3.6 -4.7 92 -8 -8 1014.2 1009.5
03 19.01 ЮЗ 2 10 км 10/10 270 м
[St]
-3.1 -3.5 97 -7 -7 1013.0 1008.3 -6.3 48
06 19.01 ЮЗ 3 10 км {снег} 10/10 240 м
[St]
-2.1 -2.8 95 -7 -7 1013.0 1008.4
09 19.01 ЮЗ 2 10 км 10/10 210 м
[St]
-0.4 -1.3 94 -4 -4 1012.6 1008.0
12 19.01 ЮЗ 3 10 км 10/10 210 м
[St]
+0.1 -0.5 96 -5 -5 1012.2 1007.6
15 19.01 ЮЗ 2 4000 м дымка 10/10 150 м
[St]
+0.1 -1.0 92 -4 -4 1011.4 1006.8 +0.2 0.0
18 19.01 ЮЗ 2 4000 м дымка 10/10 180 м
[St]
+0.4 -0.9 91 -3 -3 1010.4 1005.8
21 19.01 З 3 4000 м слаб. снег {морось} 10/10 210 м
[St]
+0.4 -0.9 91 -4 -4 1010.3 1005.7
00 20.01 С 6
{10}
10 км {снег} 10/10 800 м
[Sc]
-0.4 -2.2 88 -7 -7 1011.7 1007.1
03 20.01 С 3
{10}
10 км 10/10 600 м
[Sc]
-3.1 -5.3 85 -8 -8 1014.5 1009.8 -3.1 0.3 47
06 20.01 СЗ 4 10 км 3/0
[Ci sp]
-8.0 -10.1 85 -15 -14 1017.1 1012.3 -8.1
09 20.01 СЗ 4 10 км 3/0
[Ci sp]
-7.2 -10.1 80 -14 -12 1019.1 1014.3
12 20.01 З 3 10 км ясно -7.5 -10.1 82 -13 -13 1020.2 1015.4
15 20.01 Ю 1 10 км ясно -12.4 -14.0 88 -15 -15 1021.9 1017.0 -3.1
18 20.01 ЮЗ 2 10 км ясно -13.8 -14.8 92 -19 -19 1022.6 1017.7
21 20.01 ЮЗ 2 10 км ясно -14.8 -15.8 92 -20 -20 1023.4 1018.5
00 21.01 З 2 10 км ясно -15.7 -16.8 91 -21 -21 1022.9 1018.0
03 21.01 ЮЗ 2 4000 м дымка 10/10 210 м
[St]
-15.7 -16.9 90 -21 -21 1022.6 1017.7 -16.8 47
06 21.01 ЮЗ 2 10 км 10/10 210 м
[St]
-13.3 -14.2 93 -18 -18 1021.8 1016.9
09 21.01 ЮЗ 4 10 км 10/4 600 м
[Sc Ac lent Ci sp]
-9.2 -9.9 95 -16 -16 1020.3 1015.5
12 21.01 ЮЗ 5 10 км 10/0
[As op]
-9.4 -10.8 90 -17 -17 1017.7 1012.9
15 21.01 Ю 5 2000 м слаб. снег 10/10 240 м
[Frnb Ns]
-8.6 -9.5 93 -16 -16 1013.8 1009.0 -8.6 0.4
18 21.01 ЮЗ 5
{11}
1000 м снег 10/10 210 м
[Frnb Ns]
-6.7 -7.2 96 -14 -14 1010.7 1006.0
21 21.01 ЮЗ 2 2000 м слаб. снег 10/0
[As op]
-5.3 -6.2 93 -10 -10 1009.2 1004.5
00 22.01 СЗ 2 10 км {снег} 8/8 600 м
[Sc]
-8.5 -9.3 94 -13 -13 1010.7 1006.0
03 22.01 З 1 10 км ясно -11.5 -12.5 92 -14 -14 1012.1 1007.3 -11.5 5 50
06 22.01 З 1 10 км 6/0
[Ci sp]
-13.9 -15.0 91 -16 -16 1014.1 1009.3 -15.5
09 22.01 СЗ 4 10 км ясно -9.0 -11.8 80 -16 -14 1015.3 1010.5

 

Местоположение метеостанции Пугачев (Саратовская область, Россия): широта 52.03 долгота 48.83 высота над уровнем моря 38 м.

В архиве по умолчанию представлена погода в Пугачеве за последнюю неделю. Архивные данные за месяц целиком и за предыдущие месяцы, начиная с января 2011 года, Вы можете получить, выбрав интересующий диапазон дат из раскрывающегося списка и нажав кнопку "Ввод!".


*Определитесь, кто Вы:
робот инопланетянин человек

Внимание! Время в таблицах - всемирное. Для получения местного времени необходимо прибавить поправку, которая равна 4 ч.

Смотрите также архив погоды в соседних городах и на ближайших метеорологических станциях:

Погода в Балаково (Саратовская область, Россия) (69 км)
Погода в Хвалынске (Саратовская область, Россия) (73 км)
Погода в Ершове (Саратовская область, Россия) (82 км)
Погода в Приволжье (Самарская область, Россия) (95 км)
Погода в Перелюбе (Саратовская область, Россия) (104 км)
Погода в Озинках (Саратовская область, Россия) (111 км)
Погода в Безенчуке (Самарская область, Россия) (113 км)
Погода в Большая Глушица (Самарская область, Россия) (118 км)
Погода в Чапаевске (Самарская область, Россия) (124 км)
Погода в Сызрани (Самарская область, Россия) (131 км)

Пояснения к столбцам:

Ветер - указаны скорость ветра в м/с - средняя за 10 мин, порывы в срок и между сроками (в фигурных скобках) и направление, откуда дует ветер: С - северный, СВ - северо-восточный, В - восточный, ЮВ - юго-восточный, Ю - южный, ЮЗ - юго-западный, З - западный, СЗ - северо-западный.
Видимость - горизонтальная дальность видимости в метрах или километрах. При видимости от 1 до 10 км при отсутствии осадков обычно наблюдается дымка, при ухудшении видимости до 1 км и менее - туман. В сухую погоду видимость может ухудшаться дымом, пылью или мглою.
Явления - указаны атмосферные явления, наблюдавшиеся в срок или в последний час перед сроком; фигурными скобками обозначены явления, наблюдавшиеся между сроками (за 1-3 часа до срока); квадратными скобками обозначены град или гололедные отложения с указанием их диаметра в мм.
Облачность - указаны через наклонную черту общая и нижняя облачность в баллах и высота нижней границы облаков в метрах; квадратными скобками обозначены формы облаков: Ci - перистые, Cs - перисто-слоистые, Cc - перисто-кучевые, Ac - высококучевые, As - высокослоистые, Sc - слоисто-кучевые, Ns - слоисто-дождевые, Cu - кучевые, Cb - кучево-дождевые. Подробнее классификацию облаков см. в Атласе облаков (PDF).
T - Температура воздуха - температура, измеренная на высоте 2 м над землей.
Td - Температура точки росы - температура, при понижении до которой содержащийся в воздухе водяной пар достигнет насыщения.
f - Относительная влажность воздуха - влажноcть воздуха, измеренная на высоте 2 м над землей.
Te - Эффективная температура - температура, которую ощущает одетый по сезону человек в тени. Характеристика душности погоды. При расчете учитывается влияние влажности воздуха и скорости ветра на теплоощущения человека.
Tes - Эффективная температура на солнце - температура, которую ощущает человек, с поправкой на солнечный нагрев. Характеристика знойности погоды. Зависит от высоты солнца над горизонтом, облачности и скорости ветра. Ночью, в пасмурную погоду, а также при ветре 12 м/с и более поправка равна нулю.
P - Атмосферное давление - приведенное к уровню моря атмосферное давление.
Po - Атмосферное давление - измеренное на уровне метеостанции атмосферное давление.
Tmin - Минимальная температура - минимум температуры воздуха на высоте 2 м над землей.
Tmax - Максимальная температура - максимум температуры воздуха на высоте 2 м над землей.
R - Количество осадков - Количество выпавших осадков за период времени, мм. При наведении курсора мыши на число - период времени, за который выпало указанное количество осадков.
R24 - Количество осадков - Количество выпавших осадков за 24 часа, мм.
S - Снежный покров - Высота снежного покрова, см. При наведении курсора мыши на число - состояние снежного покрова и степень покрытия местности в баллах.